Погода Боковская

Погода Боковская : погода сейчас, прогноз погоды и архив. Всё, что Вы хотите узнать о погоде Боковская!

Хотите узнать прогноз погоды Боковская? Тогда Вам сюда: Погода Боковская

Поиск расширенной информации на нашем сайте:

Другие новости

Новости СМИ2

Главная страница сайта

Новости сайта

03.07.2017

Напоминаем, что на нашем специализированном сайте Метеоцентр.Азия вы можете получить высокодетализированные автоматические прогнозы погоды по пунктам России, СНГ и мира в авиационном формате (включающие направление и скорость ветра, видимость, явления погоды, количество и форму облачности, нижнюю и верхнюю границу облачности).

Рекомендуем: Tom Ford Amber Absolute парфюм

Погода Боковская - сегодня

Время (UTC), дата Ветер
(°,м/с) 
Видим.   Явления Облачность Т
(°С)
Тd
(°С)
f(%) Тe
(°С)
Pmin
(гПа)
dP
(гПа)
Po
(мм)
O2
(г/м3)
Тmin Tmax R s Состояние
почвы
06 19.09.17 120 (ЮВ) 20000 м    ясно 
+21.6 +13.2 59 +27  1015.1  0.8  753  279  +12.5         
09 19.09.17 170 (Ю) 20000 м    ясно 
+28.8 +13.4 39 +35  1014.8  0.1  753  272           
12 19.09.17 140 (ЮВ) 20000 м    ясно 
+31.6 +9.4 25 +32  1014  -0.7  753  270           
15 19.09.17 100 (В) 20000 м    ясно 
+24.9 +13.6 49 +31  1014.5  0.3  753  275    +31.9       
18 19.09.17 280 (З) 20000 м    ясно 
+19 +12.2 65 +24  1015.8  1.1  754  282           
21 19.09.17 280 (З) 20000 м    ясно 
+18.2 +8.7 54 +19  1016.4  0.5  754  283           
00 20.09.17 280 (З) 20000 м    ясно 
+15.3 +5.1 51 +16  1016.7  0.2  754  287           
03 20.09.17 330 (СЗ) 20000 м    ясно 
+14.4 +4.6 52 +16  1017  0.2  755  288  +13.6        сухая 
06 20.09.17 030 (СВ) 20000 м    ясно 
+19.7 +7.6 45 +21  1017.6  0.8  755  283           
09 20.09.17 050 (СВ) 20000 м    ясно 
+26.4 +9.2 34 +26  1017  -0.4  755  276           
12 20.09.17 040 (СВ) 20000 м    ясно 
+28.9 +8.5 28 +29  1016.4  -0.5  754  273           
15 20.09.17 330 (СЗ) 20000 м    ясно 
+24.4 +9.6 39 +25  1016.4  0.1  754  277    +29.1       
18 20.09.17 040 (СВ) 20000 м    ясно 
+21.1 +9.2 46 +21  1016.5  0.1  754  281           
21 20.09.17 060 (СВ) 20000 м    ясно 
+19 +9 52 +20  1016.4  0.1  754  283           
00 21.09.17 330 (СЗ) 20000 м    ясно 
+16 +8.7 62 +17  1016.7  0.2  754  286           
03 21.09.17 040 (СВ) 20000 м    ясно 
+12.4 +8.3 76 +14  1017.5  0.6  755  289  +12.4        частично
покрыта
пылью 
06 21.09.17 080 (В) 20000 м    ясно 
+20.4 +10.3 52 +22  1017.4  0.2  755  281  +12.1         
09 21.09.17 090 (В) 20000 м    ясно 
+26.4 +13.9 46 +33  1016.7  -0.4  755  275           
12 21.09.17 110 (В) 20000 м    ясно 
+29 +13.7 39 +35  1016.1  -0.4  754  272           
15 21.09.17 080 (В) 20000 м    ясно 
+26.9 +13.7 44 +33  1015.7  -0.4  754  274    +30       
18 21.09.17 080 (В) 20000 м    ясно 
+23.4 +6.2 33 +23  1016.9  755  279           
21 21.09.17 120 (ЮВ) 20000 м    ясно 
+19.9 +6 40 +21  1017.9  0.9  755  283           
00 22.09.17 070 (В) 20000 м    ясно 
+17.4 +4.3 42 +18  1018.3  0.3  756  286           
03 22.09.17 070 (В) 20000 м    ясно 
+14.7 +4.8 51 +15  1019.2  0.8  756  288  +14.2    299    замёрзшая 
06 22.09.17 070 (В) 20000 м    ясно 
+18.7 +6.3 44 +19  1020.3  1.2  757  284           
Время (UTC), дата Ветер
(°,м/с) 
Видим.   Явления Облачность Т
(°С)
Тd
(°С)
f(%) Тe
(°С)
Pmin
(гПа)
dP
(гПа)
Po
(мм)
O2
(г/м3)
Тmin Tmax R s Состояние
почвы

Для получения пояснительной информации подведите курсор к названию столбца.

ПОГОДА Боковская - архив

Всё, что Вы хотите узнать о погоде Боковская - удобно и подробно!

Выберите нужную дату (начиная с 1 января 2015* года) и нажмите кнопку "Найти".
Будут отображены архивные сводки погоды по пункту Боковская, начиная с указанной даты.


Отображать данные в формате CSV (для использования в таблицах Excel)


Внимание! Наш архив погоды предназначен исключительно для личного некоммерческого использования в познавательных целях. Если Вам необходимы официальные справки о состоянии погоды (для производственных, юридических, коммерческих и т.п. целей), обращайтесь в органы Росгидромета.

*Примечание: данная дата относится к архиву по метеостанциям СССР (Россия, СНГ, Балтия).
Архив по метеостанциям Зарубежной Европы и Азии (кроме Китая) хранится 10 дней, по другим регионам земного шара (Китай, Африка, Америка, Австралия, Океания) - 1 день.

Боковская - район местоположения метеостанции


Название, широта, долгота, высота метеостанции:
Боковская 49.2°ш. 41.8°д. 91 м над ур. моря [Российская Федерация]

Дополнительная информация

В oтличие oт бoльшинства пoгoдных сайтoв мы публикуем пoдрoбную метеoинфoрмацию в детальнoм прoфессиoнальнoм фoрмате.

Характеристики температуры и влажнoсти вoздуха измеряются на высoте 2 м в тени вдали oт зданий и деревьев.
Скoрoсть ветра измеряется на высoте 10 м (на урoвне рoста челoвека скoрoсть ветра ниже в 1.5-2 раза). Если метеoстанция нахoдится в гoрoде или в лесу, тo скoрoсть ветра занижена на 2-4 м/с пo сравнению с oткрытым местoм. Скoрoсть ветра над акватoриями крупных рек и oзёр, а также на вершинах хoлмoв на 2-5 м/с выше, чем в oбычных услoвиях.
Атмoсфернoе давление в разных тoчках местнoсти мoжет значительнo oтличаться oт давления на метеoстанции, в зависимoсти oт услoвий рельефа (при пoдъёме на 10 м давление пoнижается примернo на 1 мм рт.ст.).